| time (UTC) | temp F | wind direction | speed MPH | gust MPH | rain 1hr in | rain 24hr in | rain mn in | humidity % | barometer mb |
| 20260906200502 | 61 | 300 | 9.0 | 0.0 | 0.00 | 0.00 | 0.00 | 52 | 1024.0 |
| 20260906193502 | 61 | 310 | 10.0 | 0.0 | 0.00 | 0.00 | 0.00 | 48 | 1024.0 |
| 20260906190502 | 63 | 320 | 13.0 | 0.0 | 0.00 | 0.00 | 0.00 | 45 | 1023.0 |
| 20260906183502 | 61 | 310 | 7.0 | 0.0 | 0.00 | 0.00 | 0.00 | 48 | 1023.0 |
| 20260906180502 | 63 | 330 | 11.0 | 0.0 | 0.00 | 0.00 | 0.00 | 45 | 1023.0 |
| 20260906173502 | 64 | 320 | 13.0 | 0.0 | 0.00 | 0.00 | 0.00 | 43 | 1022.0 |
| 20260906170502 | 66 | 320 | 15.0 | 0.0 | 0.00 | 0.00 | 0.00 | 40 | 1022.0 |
| 20260906163502 | 68 | 320 | 15.0 | 0.0 | 0.00 | 0.00 | 0.00 | 38 | 1021.0 |
| 20260906160502 | 70 | 310 | 16.0 | 0.0 | 0.00 | 0.00 | 0.00 | 38 | 1021.0 |
| 20260906153502 | 70 | 320 | 20.0 | 0.0 | 0.00 | 0.00 | 0.00 | 35 | 1020.0 |
| 20260906150502 | 70 | 320 | 18.0 | 0.0 | 0.00 | 0.00 | 0.00 | 35 | 1020.0 |
| 20260906143502 | 70 | 320 | 21.0 | 0.0 | 0.00 | 0.00 | 0.00 | 38 | 1020.0 |
| 20260906140502 | 70 | 300 | 20.0 | 0.0 | 0.00 | 0.00 | 0.00 | 38 | 1019.0 |
| 20260906133502 | 72 | 320 | 21.0 | 0.0 | 0.00 | 0.00 | 0.00 | 31 | 1019.0 |
| 20260906130502 | 70 | 310 | 14.0 | 0.0 | 0.00 | 0.00 | 0.00 | 40 | 1019.0 |
| 20260906123504 | 70 | 6.0 | 0.0 | 0.00 | 0.00 | 0.00 | 46 | 1019.0 | |
| 20260906120502 | 64 | 250 | 5.0 | 0.0 | 0.00 | 0.00 | 0.00 | 60 | 1020.0 |
| 20260906113502 | 63 | 280 | 7.0 | 0.0 | 0.00 | 0.00 | 0.00 | 64 | 1020.0 |
| 20260906110502 | 66 | 310 | 21.0 | 0.0 | 0.00 | 0.00 | 0.00 | 49 | 1020.0 |
| 20260906103502 | 68 | 310 | 17.0 | 30.0 | 0.00 | 0.00 | 0.00 | 49 | 1019.0 |
| 20260906100502 | 68 | 290 | 10.0 | 0.0 | 0.00 | 0.00 | 0.00 | 56 | 1019.0 |
| 20260906093502 | 66 | 320 | 18.0 | 0.0 | 0.00 | 0.00 | 0.00 | 52 | 1019.0 |
| 20260906090502 | 68 | 330 | 18.0 | 0.0 | 0.00 | 0.00 | 0.00 | 49 | 1019.0 |
| 20260906083502 | 68 | 330 | 11.0 | 0.0 | 0.00 | 0.00 | 0.00 | 56 | 1019.0 |
| 20260906080502 | 66 | 300 | 9.0 | 0.0 | 0.00 | 0.00 | 0.00 | 60 | 1019.0 |
| 20260906073502 | 63 | 220 | 6.0 | 0.0 | 0.00 | 0.00 | 0.00 | 77 | 1019.0 |
| 20260906070502 | 61 | 260 | 7.0 | 0.0 | 0.00 | 0.00 | 0.00 | 77 | 1020.0 |
| 20260906063503 | 61 | 230 | 7.0 | 0.0 | 0.00 | 0.00 | 0.00 | 77 | 1019.0 |
| 20260906060502 | 63 | 340 | 9.0 | 0.0 | 0.00 | 0.00 | 0.00 | 68 | |
| 20260906053503 | 61 | 290 | 9.0 | 0.0 | 0.00 | 0.00 | 0.00 | 77 | 1019.0 |
| 20260906050502 | 61 | 310 | 11.0 | 0.0 | 0.00 | 0.00 | 0.00 | 83 | 1019.0 |
| 20260906043502 | 61 | 250 | 3.0 | 0.0 | 0.00 | 0.00 | 0.00 | 83 | 1018.0 |
| 20260906040502 | 59 | 240 | 5.0 | 0.0 | 0.00 | 0.00 | 0.00 | 88 | 1018.0 |
| 20260906033502 | 59 | 230 | 6.0 | 0.0 | 0.00 | 0.00 | 0.00 | 88 | 1017.0 |
| 20260906030502 | 59 | 230 | 5.0 | 0.0 | 0.00 | 0.00 | 0.00 | 88 | 1017.0 |
| 20260906023503 | 59 | 230 | 3.0 | 0.0 | 0.00 | 0.00 | 0.00 | 88 | 1017.0 |
| 20260906020503 | 61 | 220 | 2.0 | 0.0 | 0.00 | 0.00 | 0.00 | 83 | 1017.0 |
| 20260906013502 | 61 | 240 | 3.0 | 0.0 | 0.00 | 0.00 | 0.00 | 88 | 1017.0 |
| 20260906010501 | 61 | 190 | 5.0 | 0.0 | 0.00 | 0.00 | 0.00 | 88 | 1017.0 |
| 20260906003501 | 61 | 230 | 5.0 | 0.0 | 0.00 | 0.00 | 0.00 | 88 | 1017.0 |
| 20260906000502 | 61 | 220 | 5.0 | 0.0 | 0.00 | 0.00 | 0.00 | 88 | 1017.0 |
| 20260905233502 | 61 | 250 | 5.0 | 0.0 | 0.00 | 0.00 | 0.00 | 88 | 1017.0 |
| 20260905230503 | 63 | 240 | 5.0 | 0.0 | 0.00 | 0.00 | 0.00 | 83 | 1018.0 |
| 20260905223502 | 63 | 240 | 6.0 | 0.0 | 0.00 | 0.00 | 0.00 | 83 | 1018.0 |
| 20260905220501 | 61 | 240 | 6.0 | 0.0 | 0.00 | 0.00 | 0.00 | 88 | |
| 20260905213502 | 61 | 260 | 6.0 | 0.0 | 0.00 | 0.00 | 0.00 | 88 | 1017.0 |
| 20260905210502 | 61 | 260 | 7.0 | 0.0 | 0.00 | 0.00 | 0.00 | 88 | 1017.0 |
| 20260905203503 | 61 | 270 | 6.0 | 0.0 | 0.00 | 0.00 | 0.00 | 88 | 1017.0 |